SWA2713 KSTL-KCLE

Flight info

Callsign SWA2713
Flight time 1h 5m
Altitude 39000
Route JHART7 DOBLR CAROL J134 MOSEY DRUGA ROKNN3
Aircraft B737/M-SDE2E3FGHIRWXY/LB1

Departure

Time 2026-05-06 01:30
Airport St. Louis Lambert International Airport (KSTL)

Arrival

Time 2026-05-06 02:36
Airport Cleveland Hopkins International Airport (KCLE)
Time Latitude Longitude Altitude Speed Heading
2026-05-06 01:13 38.74138 -90.35961 626 ft 0 kts 211°
2026-05-06 01:23 38.74155 -90.35947 626 ft 4 kts 212°
2026-05-06 01:24 38.74178 -90.35930 626 ft 4 kts 202°
2026-05-06 01:24 38.74199 -90.35927 626 ft 3 kts 128°
2026-05-06 01:24 38.74203 -90.35935 626 ft 0 kts 122°
2026-05-06 01:27 38.74191 -90.35893 626 ft 11 kts 90°
2026-05-06 01:27 38.74208 -90.35790 626 ft 15 kts 126°
2026-05-06 01:27 38.74146 -90.35664 626 ft 19 kts 126°
2026-05-06 01:28 38.74067 -90.35507 626 ft 22 kts 121°
2026-05-06 01:28 38.73986 -90.35343 626 ft 21 kts 122°
2026-05-06 01:28 38.73909 -90.35185 626 ft 20 kts 122°
2026-05-06 01:28 38.73835 -90.35035 626 ft 19 kts 122°
2026-05-06 01:29 38.73765 -90.34891 626 ft 19 kts 122°
2026-05-06 01:29 38.73704 -90.34769 626 ft 14 kts 112°
2026-05-06 01:29 38.73763 -90.34688 626 ft 14 kts 13°
2026-05-06 01:29 38.73837 -90.34768 626 ft 20 kts 301°
2026-05-06 01:30 38.74025 -90.35145 626 ft 83 kts 302°
2026-05-06 01:30 38.74440 -90.35986 627 ft 139 kts 302°
2026-05-06 01:30 38.75017 -90.37178 844 ft 168 kts 302°
2026-05-06 01:30 38.75630 -90.38484 1506 ft 171 kts 303°
2026-05-06 01:31 38.76356 -90.39621 2265 ft 166 kts 324°
2026-05-06 01:31 38.77430 -90.40252 2673 ft 177 kts 347°
2026-05-06 01:31 38.78682 -90.40609 3009 ft 193 kts 349°
2026-05-06 01:31 38.80056 -90.40993 3305 ft 210 kts 350°
2026-05-06 01:32 38.81543 -90.41396 3621 ft 230 kts 351°
2026-05-06 01:32 38.83280 -90.41401 4113 ft 248 kts 10°
2026-05-06 01:32 38.84971 -90.40820 4876 ft 256 kts 18°
2026-05-06 01:32 38.86653 -90.39968 5658 ft 263 kts 27°
2026-05-06 01:33 38.88063 -90.38449 6429 ft 271 kts 51°
2026-05-06 01:33 38.88998 -90.36361 7207 ft 278 kts 65°
2026-05-06 01:33 38.89649 -90.33964 7997 ft 285 kts 72°
2026-05-06 01:33 38.89998 -90.31412 8651 ft 296 kts 86°
2026-05-06 01:34 38.89908 -90.28742 9351 ft 303 kts 97°
2026-05-06 01:34 38.89572 -90.26051 10069 ft 309 kts 101°
2026-05-06 01:34 38.89131 -90.23310 10612 ft 322 kts 105°
2026-05-06 01:34 38.88618 -90.20426 10972 ft 341 kts 104°
2026-05-06 01:35 38.88188 -90.17367 11528 ft 353 kts 103°
2026-05-06 01:35 38.87796 -90.14229 12168 ft 359 kts 103°
2026-05-06 01:35 38.87515 -90.12083 12681 ft 363 kts 104°
2026-05-06 01:35 38.87092 -90.08855 13330 ft 370 kts 104°
2026-05-06 01:36 38.86511 -90.04516 14271 ft 377 kts 104°
2026-05-06 01:36 38.86210 -90.02276 14779 ft 379 kts 104°
2026-05-06 01:36 38.85758 -89.98915 15484 ft 385 kts 104°
2026-05-06 01:36 38.85298 -89.95521 16214 ft 389 kts 104°
2026-05-06 01:37 38.84830 -89.92075 16905 ft 394 kts 104°
2026-05-06 01:37 38.84392 -89.88578 17596 ft 400 kts 103°
2026-05-06 01:37 38.83936 -89.85043 18271 ft 404 kts 104°
2026-05-06 01:37 38.83458 -89.81472 18927 ft 409 kts 104°
2026-05-06 01:38 38.82965 -89.77853 19569 ft 415 kts 104°
2026-05-06 01:38 38.82459 -89.74184 20203 ft 420 kts 104°
2026-05-06 01:38 38.81946 -89.70486 20820 ft 424 kts 104°
2026-05-06 01:38 38.81425 -89.66737 21413 ft 429 kts 104°
2026-05-06 01:39 38.80898 -89.62953 21991 ft 434 kts 104°
2026-05-06 01:39 38.80349 -89.59013 22561 ft 439 kts 103°
2026-05-06 01:39 38.79838 -89.55133 23083 ft 445 kts 100°
2026-05-06 01:39 38.79607 -89.51179 23731 ft 448 kts 94°
2026-05-06 01:40 38.79724 -89.47137 24133 ft 457 kts 86°
2026-05-06 01:40 38.80167 -89.43079 24602 ft 463 kts 81°
2026-05-06 01:40 38.80754 -89.39009 25070 ft 467 kts 79°
2026-05-06 01:40 38.81323 -89.34880 25520 ft 472 kts 80°
2026-05-06 01:41 38.81866 -89.30703 25955 ft 477 kts 80°
2026-05-06 01:41 38.82881 -89.22457 26867 ft 484 kts 79°
2026-05-06 01:41 38.83430 -89.18180 27314 ft 488 kts 81°
2026-05-06 01:42 38.83943 -89.13863 27705 ft 493 kts 82°
2026-05-06 01:42 38.84225 -89.09455 28040 ft 499 kts 88°
2026-05-06 01:42 38.84150 -89.04984 28416 ft 502 kts 93°
2026-05-06 01:42 38.83995 -89.00488 28766 ft 507 kts 92°
2026-05-06 01:43 38.83899 -88.95947 29112 ft 511 kts 92°
2026-05-06 01:43 38.83796 -88.91381 29459 ft 514 kts 92°
2026-05-06 01:43 38.83685 -88.86778 29783 ft 518 kts 92°
2026-05-06 01:43 38.83574 -88.82139 30116 ft 522 kts 92°
2026-05-06 01:44 38.83464 -88.77471 30396 ft 527 kts 92°
2026-05-06 01:44 38.83346 -88.72758 30675 ft 530 kts 92°
2026-05-06 01:44 38.83231 -88.68015 30986 ft 533 kts 92°
2026-05-06 01:44 38.83111 -88.63243 31295 ft 536 kts 92°
2026-05-06 01:45 38.82986 -88.58459 31589 ft 538 kts 92°
2026-05-06 01:45 38.82855 -88.53646 31866 ft 542 kts 92°
2026-05-06 01:45 38.82765 -88.48796 32111 ft 545 kts 91°
2026-05-06 01:45 38.82665 -88.43920 32356 ft 548 kts 91°
2026-05-06 01:46 38.82551 -88.39009 32616 ft 551 kts 92°
2026-05-06 01:46 38.82430 -88.34089 32916 ft 553 kts 92°
2026-05-06 01:46 38.82304 -88.29171 33279 ft 552 kts 92°
2026-05-06 01:46 38.82173 -88.24239 33607 ft 553 kts 92°
2026-05-06 01:47 38.82037 -88.19167 33910 ft 554 kts 92°
2026-05-06 01:47 38.81900 -88.14217 34258 ft 554 kts 92°
2026-05-06 01:47 38.81760 -88.09185 34605 ft 553 kts 92°
2026-05-06 01:47 38.81620 -88.04244 34894 ft 554 kts 92°
2026-05-06 01:48 38.81478 -87.99308 35158 ft 555 kts 92°
2026-05-06 01:48 38.81329 -87.94373 35534 ft 553 kts 92°
2026-05-06 01:48 38.81185 -87.89453 35836 ft 552 kts 92°
2026-05-06 01:48 38.81038 -87.84529 36070 ft 553 kts 92°
2026-05-06 01:49 38.80888 -87.79599 36340 ft 553 kts 92°
2026-05-06 01:49 38.80735 -87.74669 36618 ft 553 kts 92°
2026-05-06 01:49 38.80581 -87.69740 36868 ft 553 kts 92°
2026-05-06 01:49 38.80424 -87.64823 37140 ft 552 kts 91°
2026-05-06 01:50 38.80266 -87.59902 37362 ft 553 kts 91°
2026-05-06 01:50 38.80105 -87.54973 37610 ft 553 kts 91°
2026-05-06 01:50 38.79942 -87.50041 37818 ft 553 kts 92°
2026-05-06 01:50 38.79777 -87.45128 38082 ft 552 kts 92°
2026-05-06 01:51 38.79610 -87.40200 38315 ft 552 kts 91°
2026-05-06 01:51 38.79441 -87.35288 38522 ft 552 kts 91°
2026-05-06 01:51 38.79268 -87.30304 38716 ft 552 kts 91°
2026-05-06 01:51 38.79095 -87.25391 38842 ft 554 kts 91°
2026-05-06 01:52 38.78741 -87.15505 38856 ft 554 kts 92°
2026-05-06 01:52 38.78380 -87.05672 38858 ft 552 kts 91°
2026-05-06 01:53 38.78012 -86.95827 38856 ft 553 kts 91°
2026-05-06 01:53 38.77635 -86.85990 38849 ft 553 kts 91°
2026-05-06 01:54 38.77287 -86.76157 38843 ft 552 kts 91°
2026-05-06 01:54 38.76885 -86.66319 38840 ft 552 kts 92°
2026-05-06 01:55 38.76468 -86.56505 38836 ft 552 kts 92°
2026-05-06 01:55 38.76047 -86.46619 38837 ft 551 kts 91°
2026-05-06 01:56 38.75621 -86.36821 38838 ft 551 kts 92°
2026-05-06 01:56 38.75179 -86.27021 38836 ft 551 kts 92°
2026-05-06 01:57 38.74730 -86.17287 38834 ft 551 kts 92°
2026-05-06 01:57 38.74268 -86.07426 38831 ft 551 kts 92°
2026-05-06 01:58 38.73817 -85.97563 38828 ft 550 kts 91°
2026-05-06 01:58 38.73399 -85.87803 38827 ft 549 kts 91°
2026-05-06 01:59 38.72947 -85.78024 38829 ft 549 kts 91°
2026-05-06 01:59 38.72509 -85.68274 38830 ft 549 kts 91°
2026-05-06 02:00 38.72017 -85.58512 38836 ft 549 kts 91°
2026-05-06 02:00 38.71509 -85.48688 38839 ft 549 kts 91°
2026-05-06 02:01 38.71475 -85.43820 38817 ft 544 kts 80°
2026-05-06 02:01 38.72208 -85.39132 38820 ft 532 kts 66°
2026-05-06 02:01 38.73665 -85.34859 38829 ft 516 kts 52°
2026-05-06 02:01 38.75621 -85.31066 38855 ft 506 kts 44°
2026-05-06 02:02 38.79357 -85.25348 38847 ft 494 kts 36°
2026-05-06 02:02 38.84121 -85.19045 38840 ft 492 kts 34°
2026-05-06 02:03 38.88860 -85.12605 38837 ft 493 kts 34°
2026-05-06 02:03 38.93587 -85.06061 38837 ft 492 kts 35°
2026-05-06 02:04 38.98255 -84.99635 38836 ft 492 kts 34°
2026-05-06 02:04 39.02971 -84.93087 38835 ft 492 kts 35°
2026-05-06 02:05 39.07667 -84.86529 38833 ft 493 kts 35°
2026-05-06 02:05 39.12313 -84.80017 38831 ft 493 kts 35°
2026-05-06 02:06 39.16947 -84.73506 38831 ft 493 kts 35°
2026-05-06 02:06 39.21579 -84.66983 38831 ft 493 kts 35°
2026-05-06 02:07 39.26203 -84.60457 38832 ft 493 kts 35°
2026-05-06 02:07 39.30829 -84.53914 38837 ft 493 kts 35°
2026-05-06 02:08 39.35483 -84.47319 38839 ft 492 kts 35°
2026-05-06 02:08 39.40084 -84.40783 38840 ft 491 kts 35°
2026-05-06 02:09 39.44687 -84.34232 38814 ft 492 kts 35°
2026-05-06 02:09 39.46974 -84.30972 38534 ft 486 kts 35°
2026-05-06 02:09 39.49266 -84.27743 37882 ft 488 kts 35°
2026-05-06 02:10 39.51571 -84.24463 37016 ft 495 kts 36°
2026-05-06 02:10 39.53890 -84.21143 36151 ft 501 kts 36°
2026-05-06 02:10 39.56233 -84.17781 35368 ft 505 kts 36°
2026-05-06 02:10 39.58589 -84.14394 34824 ft 502 kts 36°
2026-05-06 02:11 39.60929 -84.11026 34573 ft 493 kts 36°
2026-05-06 02:11 39.63202 -84.07749 34326 ft 498 kts 36°
2026-05-06 02:11 39.65579 -84.04332 34082 ft 510 kts 36°
2026-05-06 02:11 39.67975 -84.00904 33829 ft 513 kts 34°
2026-05-06 02:12 39.70518 -83.97701 33580 ft 503 kts 30°
2026-05-06 02:12 39.73131 -83.94744 33330 ft 496 kts 28°
2026-05-06 02:12 39.75808 -83.91833 33078 ft 493 kts 28°
2026-05-06 02:12 39.78430 -83.88970 32825 ft 492 kts 28°
2026-05-06 02:13 39.81060 -83.86085 32576 ft 497 kts 29°
2026-05-06 02:13 39.83701 -83.83164 32331 ft 496 kts 29°
2026-05-06 02:13 39.86324 -83.80260 32077 ft 496 kts 30°
2026-05-06 02:13 39.88952 -83.77333 31826 ft 497 kts 30°
2026-05-06 02:14 39.91571 -83.74413 31577 ft 494 kts 30°
2026-05-06 02:14 39.94182 -83.71508 31326 ft 492 kts 30°
2026-05-06 02:14 39.96793 -83.68661 30980 ft 487 kts 30°
2026-05-06 02:14 39.99363 -83.65819 30445 ft 482 kts 31°
2026-05-06 02:15 40.01901 -83.62991 29908 ft 479 kts 32°
2026-05-06 02:15 40.04414 -83.60175 29366 ft 475 kts 32°
2026-05-06 02:15 40.06913 -83.57370 28808 ft 471 kts 32°
2026-05-06 02:15 40.09418 -83.54554 28247 ft 468 kts 33°
2026-05-06 02:16 40.11882 -83.51784 27691 ft 465 kts 33°
2026-05-06 02:16 40.14322 -83.49039 27138 ft 461 kts 33°
2026-05-06 02:16 40.16763 -83.46298 26583 ft 458 kts 33°
2026-05-06 02:16 40.19155 -83.43586 26035 ft 456 kts 35°
2026-05-06 02:17 40.21480 -83.40768 25486 ft 455 kts 37°
2026-05-06 02:17 40.23746 -83.37878 24936 ft 453 kts 39°
2026-05-06 02:17 40.25994 -83.35016 24390 ft 450 kts 38°
2026-05-06 02:17 40.28253 -83.32200 23845 ft 447 kts 38°
2026-05-06 02:18 40.30497 -83.29389 23299 ft 445 kts 39°
2026-05-06 02:18 40.32751 -83.26560 22749 ft 442 kts 39°
2026-05-06 02:18 40.34967 -83.23773 22207 ft 439 kts 39°
2026-05-06 02:18 40.37162 -83.21010 21666 ft 437 kts 39°
2026-05-06 02:19 40.39349 -83.18254 21125 ft 435 kts 39°
2026-05-06 02:19 40.41526 -83.15510 20587 ft 432 kts 39°
2026-05-06 02:19 40.43685 -83.12788 20058 ft 430 kts 40°
2026-05-06 02:19 40.45835 -83.10076 19538 ft 427 kts 40°
2026-05-06 02:20 40.50063 -83.04746 19022 ft 413 kts 40°
2026-05-06 02:20 40.52127 -83.02165 18955 ft 405 kts 40°
2026-05-06 02:20 40.53469 -83.00485 18912 ft 399 kts 40°
2026-05-06 02:21 40.56116 -82.97160 18745 ft 387 kts 39°
2026-05-06 02:21 40.57403 -82.95542 18374 ft 388 kts 40°
2026-05-06 02:21 40.59388 -82.93045 17420 ft 403 kts 40°
2026-05-06 02:21 40.61453 -82.90444 16771 ft 407 kts 40°
2026-05-06 02:22 40.63495 -82.87869 16393 ft 406 kts 40°
2026-05-06 02:22 40.65532 -82.85299 16024 ft 404 kts 40°
2026-05-06 02:22 40.67537 -82.82767 15664 ft 401 kts 41°
2026-05-06 02:22 40.69562 -82.80209 15301 ft 398 kts 41°
2026-05-06 02:23 40.71602 -82.77683 14941 ft 396 kts 40°
2026-05-06 02:23 40.73595 -82.75204 14590 ft 393 kts 41°
2026-05-06 02:23 40.75570 -82.72726 14238 ft 391 kts 41°
2026-05-06 02:23 40.77525 -82.70251 13890 ft 389 kts 41°
2026-05-06 02:24 40.79471 -82.67776 13545 ft 387 kts 41°
2026-05-06 02:24 40.81411 -82.65315 13199 ft 384 kts 41°
2026-05-06 02:24 40.83345 -82.62856 12854 ft 382 kts 42°
2026-05-06 02:24 40.85252 -82.60427 12515 ft 380 kts 42°
2026-05-06 02:25 40.87150 -82.58008 12180 ft 377 kts 42°
2026-05-06 02:25 40.89059 -82.55582 11838 ft 375 kts 42°
2026-05-06 02:25 40.90905 -82.53221 11506 ft 373 kts 42°
2026-05-06 02:25 40.92764 -82.50848 11176 ft 370 kts 42°
2026-05-06 02:26 40.94618 -82.48498 10848 ft 366 kts 42°
2026-05-06 02:26 40.96427 -82.46195 10525 ft 359 kts 42°
2026-05-06 02:26 40.98205 -82.43926 10207 ft 352 kts 42°
2026-05-06 02:26 40.99950 -82.41695 9942 ft 343 kts 43°
2026-05-06 02:27 41.01624 -82.39552 9924 ft 327 kts 43°
2026-05-06 02:27 41.03226 -82.37502 9796 ft 315 kts 43°
2026-05-06 02:27 41.04792 -82.35496 9494 ft 311 kts 43°
2026-05-06 02:27 41.06355 -82.33534 9150 ft 308 kts 40°
2026-05-06 02:28 41.07952 -82.31657 8807 ft 306 kts 39°
2026-05-06 02:28 41.09541 -82.29807 8472 ft 303 kts 40°
2026-05-06 02:28 41.11120 -82.27969 8121 ft 300 kts 39°
2026-05-06 02:28 41.12696 -82.26168 7731 ft 299 kts 39°
2026-05-06 02:29 41.14261 -82.24367 7431 ft 296 kts 39°
2026-05-06 02:29 41.15823 -82.22561 7171 ft 291 kts 39°
2026-05-06 02:29 41.17335 -82.20812 6934 ft 286 kts 39°
2026-05-06 02:29 41.18813 -82.19108 6646 ft 284 kts 38°
2026-05-06 02:30 41.20292 -82.17373 6432 ft 282 kts 39°
2026-05-06 02:30 41.21757 -82.15664 6172 ft 270 kts 39°
2026-05-06 02:30 41.23078 -82.13939 5824 ft 264 kts 45°
2026-05-06 02:30 41.24274 -82.12110 5472 ft 261 kts 47°
2026-05-06 02:31 41.25430 -82.10291 5132 ft 255 kts 48°
2026-05-06 02:31 41.26558 -82.08512 4787 ft 249 kts 47°
2026-05-06 02:31 41.27660 -82.06773 4469 ft 243 kts 47°
2026-05-06 02:31 41.28738 -82.05085 4136 ft 236 kts 47°
2026-05-06 02:32 41.29774 -82.03445 3843 ft 229 kts 48°
2026-05-06 02:32 41.30777 -82.01867 3552 ft 223 kts 49°
2026-05-06 02:32 41.31756 -82.00321 3262 ft 208 kts 47°
2026-05-06 02:32 41.32648 -81.98920 2990 ft 194 kts 47°
2026-05-06 02:33 41.33494 -81.97590 2744 ft 178 kts 47°
2026-05-06 02:33 41.34006 -81.96783 2591 ft 168 kts 47°
2026-05-06 02:33 41.35652 -81.94190 2105 ft 153 kts 48°
2026-05-06 02:34 41.36330 -81.93120 1905 ft 149 kts 48°
2026-05-06 02:34 41.36987 -81.92084 1698 ft 142 kts 48°
2026-05-06 02:34 41.37611 -81.91100 1509 ft 137 kts 48°
2026-05-06 02:34 41.38242 -81.90104 1357 ft 143 kts 49°
2026-05-06 02:35 41.38886 -81.89087 1155 ft 144 kts 49°
2026-05-06 02:35 41.39538 -81.88081 960 ft 142 kts 48°
2026-05-06 02:35 41.40164 -81.87082 811 ft 137 kts 52°
2026-05-06 02:35 41.40709 -81.86216 799 ft 95 kts 51°
2026-05-06 02:36 41.40980 -81.85775 799 ft 42 kts 50°
2026-05-06 02:36 41.41086 -81.85533 799 ft 27 kts 87°
2026-05-06 02:36 41.41084 -81.85434 799 ft 0 kts 90°
2026-05-06 02:37 41.41085 -81.85430 799 ft 3 kts 88°
2026-05-06 02:37 41.41108 -81.85351 799 ft 15 kts 53°
2026-05-06 02:37 41.41179 -81.85238 799 ft 16 kts 49°
2026-05-06 02:37 41.41250 -81.85129 799 ft 15 kts 50°
2026-05-06 02:38 41.41314 -81.85027 799 ft 14 kts 50°
2026-05-06 02:38 41.41277 -81.84910 799 ft 22 kts 143°
2026-05-06 02:38 41.41151 -81.84767 799 ft 23 kts 141°
2026-05-06 02:38 41.41102 -81.84666 799 ft 11 kts 70°
2026-05-06 02:39 41.41086 -81.84580 799 ft 13 kts 143°
2026-05-06 02:39 41.40999 -81.84484 799 ft 17 kts 139°
2026-05-06 02:39 41.40956 -81.84381 799 ft 14 kts 27°
2026-05-06 02:39 41.41050 -81.84371 799 ft 16 kts 360°
2026-05-06 02:40 41.41185 -81.84370 799 ft 21 kts
2026-05-06 02:40 41.41286 -81.84252 799 ft 18 kts 49°
2026-05-06 02:40 41.41329 -81.84138 799 ft 11 kts 145°
2026-05-06 02:40 41.41264 -81.84172 799 ft 9 kts 214°
2026-05-06 02:41 41.41212 -81.84186 799 ft 5 kts 182°
2026-05-06 02:41 41.41204 -81.84186 799 ft 0 kts 183°